Weather History for Ogallala, NE

Change the Weather History Date:

Wednesday, October 31, 2012

  Actual Average Record
Temperature  
Mean Temperature 52 °F -  
Max Temperature 72 °F 54 °F 85 °F (1968)
Min Temperature 33 °F 27 °F 9 °F (1993)
Degree Days  
Heating Degree Days 13    
Growing Degree Days 2 (Base 50)    
Moisture  
Dew Point 33 °F    
Average Humidity 62    
Maximum Humidity 93    
Minimum Humidity 23    
Precipitation  
Precipitation 0.00 in - - ()
Sea Level Pressure  
Sea Level Pressure 30.05 in    
Wind  
Wind Speed 6 mph (West)    
Max Wind Speed 10 mph    
Max Gust Speed -    
Visibility 10 miles    
Events      
Averages and records for this station are not official NWS values.
T = Trace of Precipitation, MM = Missing Value Source: NWS Daily Summary

Daily Weather History Graph

Daily Weather History Graph

Search for Another Location

Airport:

Trip Planner

Search our weather history database for the weather conditions in past years. The results will help you decide how hot, cold, wet, or windy it might be!

Date:

Astronomy

Oct. 31, 2012 Rise Set
Actual Time 7:17 AM MDT 5:43 PM MDT
Civil Twilight 6:48 AM MDT 6:11 PM MDT
Nautical Twilight 6:16 AM MDT 6:44 PM MDT
Astronomical Twilight 5:44 AM MDT 7:16 PM MDT
Moon 6:54 PM MDT (10/31) 9:01 AM MDT (10/31)
Length of Visible Light 11h 22m
Length of Day
10h 25m
Full, 97% of the Moon is Illuminated
Oct 31
Full
Nov 6
Last Quarter
Nov 13
New
Nov 20
First Quarter
Nov 28
Full

Hourly Weather History & Observations

Time (MDT) Temp. Windchill Dew Point Humidity Pressure Visibility Wind Dir Wind Speed Gust Speed Precip Events Conditions
12:15 AM 38.1 °F 35.7 °F 32.4 °F 80% 30.04 in 10.0 mi WSW 3.5 mph - N/A   Clear
12:35 AM 37.9 °F 35.5 °F 33.4 °F 84% 30.04 in 10.0 mi West 3.5 mph - N/A   Clear
12:55 AM 37.4 °F - 32.9 °F 84% 30.04 in 10.0 mi Calm Calm - N/A   Clear
1:15 AM 35.6 °F 29.9 °F 31.8 °F 86% 30.04 in 10.0 mi West 6.9 mph - N/A   Clear
1:55 AM 34.7 °F 28.1 °F 31.6 °F 89% 30.04 in 10.0 mi WSW 8.1 mph - N/A   Clear
2:15 AM 35.2 °F 28.8 °F 32.0 °F 88% 30.05 in 10.0 mi West 8.1 mph - N/A   Clear
2:35 AM 36.5 °F 30.3 °F 32.9 °F 87% 30.05 in 10.0 mi West 8.1 mph - N/A   Clear
2:55 AM 36.5 °F 31.0 °F 33.1 °F 87% 30.05 in 10.0 mi West 6.9 mph - N/A   Clear
3:35 AM 36.7 °F 34.1 °F 33.3 °F 87% 30.05 in 10.0 mi West 3.5 mph - N/A   Clear
3:55 AM 36.9 °F 30.1 °F 33.8 °F 89% 30.04 in 10.0 mi West 9.2 mph - N/A   Clear
4:15 AM 37.4 °F 32.8 °F 34.0 °F 87% 30.04 in 10.0 mi West 5.8 mph - N/A   Clear
4:35 AM 36.7 °F 29.9 °F 33.6 °F 89% 30.04 in 10.0 mi West 9.2 mph - N/A   Clear
4:55 AM 36.5 °F 30.3 °F 33.4 °F 89% 30.04 in 10.0 mi West 8.1 mph - N/A   Clear
5:15 AM 36.5 °F 30.3 °F 33.1 °F 87% 30.04 in 10.0 mi West 8.1 mph - N/A   Clear
5:35 AM 35.8 °F 30.1 °F 32.9 °F 89% 30.05 in 10.0 mi West 6.9 mph - N/A   Clear
5:55 AM 35.6 °F 29.2 °F 32.4 °F 88% 30.05 in 10.0 mi West 8.1 mph - N/A   Clear
6:15 AM 34.7 °F 28.1 °F 32.0 °F 90% 30.05 in 10.0 mi WSW 8.1 mph - N/A   Clear
6:35 AM 34.2 °F 27.5 °F 32.0 °F 92% 30.05 in 10.0 mi West 8.1 mph - N/A   Clear
6:55 AM 34.0 °F 29.8 °F 31.8 °F 92% 30.05 in 10.0 mi WSW 4.6 mph - N/A   Clear
7:15 AM 33.1 °F 27.7 °F 31.1 °F 92% 30.05 in 10.0 mi West 5.8 mph - N/A   Clear
7:35 AM 33.4 °F 26.6 °F 31.6 °F 93% 30.05 in 10.0 mi West 8.1 mph - N/A   Clear
7:55 AM 34.9 °F 29.0 °F 32.0 °F 89% 30.07 in 10.0 mi West 6.9 mph - N/A   Clear
8:15 AM 36.7 °F 31.2 °F 33.1 °F 87% 30.07 in 10.0 mi WSW 6.9 mph - N/A   Clear
8:35 AM 39.4 °F 35.2 °F 34.7 °F 83% 30.08 in 10.0 mi WSW 5.8 mph - N/A   Clear
8:55 AM 42.4 °F 38.1 °F 36.0 °F 78% 30.07 in 10.0 mi West 6.9 mph - N/A   Clear
9:15 AM 44.8 °F 39.9 °F 36.9 °F 74% 30.08 in 10.0 mi West 9.2 mph - N/A   Clear
9:35 AM 47.5 °F - 38.5 °F 71% 30.08 in 10.0 mi West 8.1 mph - N/A   Clear
9:55 AM 51.6 °F - 39.7 °F 64% 30.08 in 10.0 mi WSW 5.8 mph - N/A   Clear
10:15 AM 54.0 °F - 39.6 °F 58% 30.08 in 10.0 mi WSW 6.9 mph - N/A   Clear
10:35 AM 57.4 °F - 40.1 °F 53% 30.07 in 10.0 mi WSW 5.8 mph - N/A   Clear
10:55 AM 60.8 °F - 39.6 °F 46% 30.08 in 10.0 mi WSW 6.9 mph - N/A   Clear
11:15 AM 64.6 °F - 35.1 °F 33% 30.08 in 10.0 mi WNW 9.2 mph - N/A   Clear
11:35 AM 66.0 °F - 32.7 °F 29% 30.07 in 10.0 mi WNW 10.4 mph - N/A   Clear
11:55 AM 67.3 °F - 32.7 °F 28% 30.07 in 10.0 mi NW 8.1 mph - N/A   Clear
12:15 PM 68.2 °F - 32.5 °F 27% 30.06 in 10.0 mi NW 6.9 mph - N/A   Clear
12:35 PM 69.1 °F - 33.3 °F 27% 30.05 in 10.0 mi NW 5.8 mph - N/A   Clear
12:55 PM 69.6 °F - 32.5 °F 25% 30.04 in 10.0 mi West 3.5 mph - N/A   Clear
1:15 PM 69.8 °F - 32.4 °F 25% 30.04 in 10.0 mi NNW 5.8 mph - N/A   Clear
1:35 PM 69.8 °F - 32.7 °F 25% 30.04 in 10.0 mi WNW 4.6 mph - N/A   Clear
1:55 PM 70.9 °F - 32.7 °F 24% 30.03 in 10.0 mi NW 4.6 mph - N/A   Clear
2:15 PM 70.9 °F - 32.5 °F 24% 30.03 in 10.0 mi NNW 9.2 mph - N/A   Clear
2:35 PM 71.6 °F - 32.0 °F 23% 30.02 in 10.0 mi NW 4.6 mph - N/A   Clear
2:55 PM 71.1 °F - 31.5 °F 23% 30.02 in 10.0 mi NNW 5.8 mph - N/A   Clear
3:15 PM 70.9 °F - 31.6 °F 23% 30.02 in 10.0 mi NW 3.5 mph - N/A   Clear
3:35 PM 71.6 °F - 31.3 °F 23% 30.02 in 10.0 mi North 5.8 mph - N/A   Clear
3:55 PM 71.6 °F - 31.6 °F 23% 30.03 in 10.0 mi NW 4.6 mph - N/A   Clear
4:15 PM 69.1 °F - 32.5 °F 26% 30.02 in 10.0 mi Calm Calm - N/A   Clear
4:35 PM 67.6 °F - 32.5 °F 27% 30.03 in 10.0 mi Calm Calm - N/A   Clear
4:55 PM 64.4 °F - 34.0 °F 32% 30.04 in 10.0 mi NW 3.5 mph - N/A   Clear
5:15 PM 62.1 °F - 34.2 °F 35% 30.04 in 10.0 mi NW 4.6 mph - N/A   Clear
5:35 PM 58.3 °F - 34.2 °F 40% 30.04 in 10.0 mi NW 4.6 mph - N/A   Clear
6:15 PM 55.6 °F - 34.2 °F 44% 30.05 in 10.0 mi West 3.5 mph - N/A   Clear
6:35 PM 51.4 °F - 33.8 °F 51% 30.05 in 10.0 mi WNW 3.5 mph - N/A   Clear
6:55 PM 51.4 °F - 33.8 °F 51% 30.06 in 10.0 mi Calm Calm - N/A   Clear
7:15 PM 50.2 °F - 33.8 °F 53% 30.06 in 10.0 mi NW 4.6 mph - N/A   Clear
7:35 PM 46.6 °F - 33.8 °F 61% 30.06 in 10.0 mi West 6.9 mph - N/A   Clear
7:55 PM 43.9 °F 40.5 °F 33.4 °F 67% 30.06 in 10.0 mi West 5.8 mph - N/A   Clear
8:15 PM 45.3 °F 42.3 °F 33.3 °F 63% 30.06 in 10.0 mi West 5.8 mph - N/A   Clear
8:35 PM 43.2 °F 41.5 °F 33.1 °F 68% 30.07 in 10.0 mi West 3.5 mph - N/A   Clear
8:55 PM 41.7 °F 39.8 °F 32.5 °F 70% 30.06 in 10.0 mi West 3.5 mph - N/A   Clear
9:15 PM 41.2 °F 36.6 °F 32.9 °F 72% 30.06 in 10.0 mi WSW 6.9 mph - N/A   Clear
9:35 PM 40.3 °F 38.2 °F 32.7 °F 74% 30.07 in 10.0 mi West 3.5 mph - N/A   Clear
9:55 PM 40.8 °F 37.8 °F 32.9 °F 73% 30.07 in 10.0 mi West 4.6 mph - N/A   Clear
10:15 PM 39.4 °F 37.2 °F 32.5 °F 76% 30.07 in 10.0 mi West 3.5 mph - N/A   Clear
10:35 PM 39.6 °F 34.0 °F 32.4 °F 75% 30.07 in 10.0 mi West 8.1 mph - N/A   Clear
10:55 PM 38.5 °F 35.0 °F 32.0 °F 78% 30.07 in 10.0 mi West 4.6 mph - N/A   Clear
11:15 PM 38.7 °F 36.3 °F 32.2 °F 78% 30.07 in 10.0 mi WSW 3.5 mph - N/A   Clear
11:35 PM 37.6 °F - 32.0 °F 80% 30.07 in 10.0 mi Calm Calm - N/A   Clear
11:55 PM 36.3 °F - 31.5 °F 83% 30.07 in 10.0 mi Calm Calm - N/A   Clear